QPF
0.00 0.00 0.00 0.00 0.00 0.00 0.00 0.00 0.00 0.00 0.00 0.00 0.00 0.00 0.00 0.00 0.00 0.00 0.00 0.00 0.00 0.00 0.00 0.00 0.00 0.00 0.00 0.00 0.00 0.00 0.00 0.00 0.02 0.01 0.02 0.01 0.01 0.01 0.00 0.00 0.00 0.00 0.01 0.06
0.00 0.00 0.00 0.00 0.00 0.00 0.00 0.00 0.00 0.00 0.00 0.00 0.00 0.00 0.00 0.00 0.00 0.00 0.00 0.00 0.00 0.00 0.00 0.00 0.00 0.00 0.00 0.00 0.00 0.00 0.01 0.02 0.07 0.10 0.01 0.00 0.01 0.00 0.00 0.00 0.00 0.00 0.00 0.02
0.00 0.00 0.00 0.00 0.00 0.00 0.00 0.00 0.00 0.00 0.00 0.00 0.00 0.00 0.00 0.00 0.00 0.00 0.00 0.00 0.00 0.00 0.00 0.00 0.00 0.00 0.00 0.00 0.00 0.00 0.01 0.04 0.14 0.24 0.29 0.18 0.02 0.00 0.00 0.00 0.00 0.00 0.00 0.03
0.00 0.00 0.00 0.00 0.00 0.00 0.00 0.00 0.00 0.00 0.00 0.00 0.00 0.00 0.00 0.00 0.00 0.00 0.00 0.00 0.00 0.00 0.00 0.00 0.00 0.00 0.00 0.00 0.00 0.00 0.00 0.01 0.01 0.01 0.08 0.16 0.03 0.01 0.00 0.00 0.00 0.00 0.01 0.03
0.00 0.00 0.00 0.00 0.00 0.00 0.00 0.00 0.00 0.00 0.00 0.00 0.00 0.00 0.00 0.00 0.00 0.00 0.00 0.00 0.00 0.00 0.00 0.00 0.00 0.00 0.00 0.00 0.00 0.00 0.00 0.00 0.00 0.01 0.01 0.03 0.01 0.01 0.00 0.00 0.00 0.01 0.01 0.07
0.00 0.00 0.00 0.00 0.00 0.00 0.00 0.00 0.00 0.00 0.00 0.00 0.00 0.00 0.00 0.00 0.00 0.00 0.00 0.00 0.00 0.00 0.00 0.00 0.00 0.00 0.00 0.00 0.00 0.00 0.00 0.01 0.00 0.01 0.00 0.00 0.12 0.14 0.11 0.11 0.18 0.04 0.05 0.06
0.00 0.00 0.00 0.00 0.00 0.00 0.00 0.00 0.00 0.00 0.00 0.00 0.00 0.00 0.00 0.00 0.00 0.00 0.00 0.00 0.00 0.00 0.00 0.00 0.00 0.00 0.00 0.00 0.01 0.00 0.00 0.00 0.00 0.00 0.00 0.03 0.12 0.03 0.05 0.14 0.10 0.06 0.06 0.06
0.00 0.00 0.00 0.00 0.00 0.00 0.00 0.01 0.00 0.00 0.00 0.00 0.00 0.00 0.00 0.00 0.00 0.00 0.00 0.00 0.00 0.00 0.00 0.00 0.00 0.00 0.00 0.01 0.01 0.02 0.01 0.01 0.01 0.01 0.00 0.03 0.02 0.00 0.00 0.01 0.01 0.02 0.05 0.03
0.00 0.00 0.00 0.00 0.00 0.00 0.00 0.00 0.00 0.00 0.00 0.00 0.00 0.00 0.00 0.00 0.00 0.00 0.00 0.00 0.00 0.00 0.00 0.00 0.00 0.00 0.04 0.04 0.01 0.01 0.03 0.03 0.02 0.00 0.01 0.03 0.01 0.00 0.00 0.00 0.05 0.10 0.10 0.05
0.00 0.00 0.00 0.00 0.00 0.00 0.00 0.00 0.00 0.00 0.00 0.00 0.00 0.00 0.00 0.00 0.00 0.00 0.00 0.00 0.00 0.00 0.00 0.00 0.00 0.01 0.03 0.04 0.02 0.01 0.01 0.02 0.02 0.01 0.02 0.05 0.01 0.00 0.00 0.02 0.06 0.04 0.08 0.08
0.00 0.00 0.00 0.00 0.00 0.00 0.00 0.01 0.00 0.00 0.00 0.00 0.00 0.00 0.00 0.00 0.00 0.01 0.00 0.00 0.00 0.00 0.00 0.01 0.01 0.00 0.00 0.01 0.04 0.08 0.05 0.01 0.01 0.02 0.04 0.08 0.02 0.00 0.02 0.07 0.03 0.01 0.06 0.06
0.00 0.00 0.00 0.00 0.00 0.00 0.00 0.02 0.02 0.01 0.00 0.00 0.00 0.00 0.00 0.00 0.00 0.00 0.00 0.00 0.00 0.00 0.01 0.01 0.00 0.00 0.01 0.01 0.07 0.11 0.13 0.01 0.02 0.04 0.04 0.05 0.01 0.03 0.04 0.01 0.01 0.00 0.00 0.00
0.00 0.00 0.00 0.00 0.00 0.00 0.00 0.02 0.01 0.00 0.00 0.00 0.00 0.00 0.00 0.00 0.00 0.00 0.00 0.00 0.00 0.01 0.01 0.01 0.01 0.01 0.00 0.02 0.02 0.02 0.05 0.01 0.00 0.02 0.01 0.00 0.00 0.00 0.01 0.00 0.01 0.00 0.00 0.00
0.00 0.00 0.00 0.00 0.00 0.00 0.00 0.01 0.01 0.00 0.02 0.00 0.00 0.00 0.00 0.00 0.00 0.00 0.00 0.00 0.01 0.01 0.00 0.00 0.01 0.01 0.00 0.00 0.00 0.02 0.00 0.00 0.00 0.01 0.00 0.02 0.01 0.00 0.01 0.01 0.01 0.00 0.00 0.00
0.00 0.00 0.01 0.00 0.00 0.00 0.00 0.01 0.01 0.00 0.01 0.02 0.00 0.00 0.00 0.00 0.00 0.00 0.00 0.00 0.00 0.00 0.00 0.00 0.00 0.00 0.00 0.00 0.02 0.04 0.01 0.00 0.00 0.00 0.00 0.02 0.01 0.01 0.01 0.01 0.01 0.00 0.00 0.00
0.00 0.00 0.01 0.00 0.00 0.00 0.00 0.01 0.01 0.01 0.03 0.01 0.00 0.00 0.00 0.00 0.00 0.00 0.00 0.01 0.00 0.00 0.00 0.00 0.00 0.00 0.01 0.00 0.01 0.00 0.00 0.00 0.00 0.00 0.01 0.01 0.01 0.01 0.01 0.02 0.01 0.00 0.00 0.00
0.00 0.00 0.00 0.00 0.00 0.00 0.01 0.01 0.03 0.03 0.02 0.01 0.00 0.00 0.00 0.00 0.00 0.00 0.01 0.01 0.00 0.01 0.00 0.00 0.00 0.00 0.02 0.01 0.01 0.00 0.00 0.00 0.00 0.00 0.03 0.03 0.02 0.02 0.01 0.02 0.02 0.00 0.00 0.00
0.00 0.00 0.00 0.01 0.00 0.00 0.00 0.00 0.01 0.06 0.04 0.01 0.01 0.00 0.01 0.00 0.00 0.00 0.00 0.00 0.00 0.00 0.00 0.00 0.00 0.01 0.04 0.04 0.00 0.00 0.00 0.00 0.00 0.00 0.00 0.01 0.02 0.02 0.02 0.02 0.02 0.01 0.01 0.01
0.01 0.00 0.01 0.01 0.01 0.00 0.00 0.02 0.02 0.03 0.12 0.08 0.02 0.00 0.02 0.00 0.00 0.00 0.00 0.00 0.00 0.00 0.00 0.00 0.01 0.03 0.05 0.03 0.00 0.00 0.00 0.00 0.00 0.00 0.00 0.00 0.00 0.01 0.03 0.03 0.03 0.02 0.01 0.00
0.02 0.01 0.01 0.01 0.00 0.01 0.03 0.02 0.04 0.05 0.02 0.03 0.02 0.00 0.02 0.02 0.01 0.01 0.01 0.01 0.01 0.01 0.00 0.01 0.02 0.04 0.03 0.00 0.00 0.00 0.00 0.00 0.00 0.00 0.00 0.00 0.00 0.00 0.00 0.00 0.01 0.01 0.00 0.00
0.01 0.01 0.00 0.02 0.02 0.02 0.02 0.02 0.02 0.02 0.02 0.00 0.00 0.00 0.00 0.03 0.02 0.01 0.00 0.02 0.02 0.01 0.01 0.02 0.03 0.02 0.02 0.00 0.00 0.00 0.00 0.00 0.00 0.00 0.00 0.00 0.00 0.00 0.00 0.00 0.00 0.00 0.00 0.00
0.00 0.01 0.02 0.26 0.07 0.01 0.02 0.04 0.02 0.01 0.00 0.00 0.00 0.00 0.00 0.02 0.03 0.03 0.01 0.01 0.00 0.01 0.05 0.01 0.01 0.02 0.00 0.00 0.00 0.00 0.00 0.00 0.00 0.00 0.00 0.00 0.00 0.00 0.00 0.00 0.00 0.00 0.00 0.00
0.00 0.01 0.02 0.22 0.11 0.02 0.01 0.02 0.01 0.00 0.00 0.00 0.00 0.00 0.00 0.01 0.02 0.01 0.00 0.00 0.00 0.02 0.06 0.02 0.01 0.01 0.00 0.00 0.00 0.00 0.00 0.00 0.00 0.00 0.00 0.00 0.00 0.00 0.00 0.00 0.00 0.00 0.00 0.00
0.01 0.02 0.03 0.14 0.10 0.01 0.01 0.01 0.00 0.00 0.00 0.00 0.00 0.00 0.00 0.01 0.01 0.00 0.00 0.00 0.00 0.01 0.05 0.01 0.01 0.00 0.00 0.00 0.00 0.00 0.00 0.00 0.00 0.00 0.00 0.00 0.00 0.00 0.00 0.00 0.00 0.00 0.00 0.00
0.03 0.04 0.07 0.10 0.11 0.01 0.01 0.02 0.01 0.00 0.01 0.00 0.00 0.01 0.01 0.00 0.00 0.00 0.00 0.00 0.01 0.01 0.01 0.01 0.01 0.00 0.00 0.00 0.00 0.00 0.00 0.00 0.00 0.00 0.00 0.00 0.00 0.00 0.00 0.00 0.00 0.00 0.00 0.00
0.03 0.05 0.09 0.08 0.08 0.01 0.00 0.02 0.04 0.01 0.01 0.01 0.01 0.00 0.00 0.00 0.00 0.00 0.01 0.01 0.05 0.06 0.01 0.01 0.00 0.00 0.00 0.00 0.00 0.00 0.00 0.00 0.00 0.00 0.00 0.00 0.00 0.00 0.00 0.00 0.00 0.00 0.00 0.00
0.01 0.01 0.01 0.05 0.03 0.02 0.00 0.00 0.00 0.00 0.00 0.01 0.01 0.00 0.00 0.00 0.00 0.00 0.00 0.00 0.00 0.00 0.01 0.00 0.00 0.00 0.00 0.00 0.00 0.00 0.00 0.00 0.00 0.00 0.00 0.00 0.00 0.00 0.00 0.00 0.00 0.00 0.00 0.00
MSLP
1016.54 1016.98 1017.66 1017.76 1017.90 1017.59 1017.39 1017.32 1016.46 1015.64 1015.61 1016.56 1016.27 1015.92 1014.80 1014.32 1013.65 1012.93 1012.66 1012.75 1012.69 1012.88 1012.59 1011.95 1011.70 1011.29 1010.57 1009.68 1009.04 1008.59 1008.21 1007.70 1005.94 1004.20 1003.04 1002.08 1001.45 1001.32 1001.53 1002.59 1002.66 1002.03 1002.43 1003.68
1016.73 1017.18 1017.63 1017.82 1017.79 1017.42 1017.72 1017.12 1016.11 1015.61 1015.64 1016.31 1016.02 1014.93 1014.37 1013.73 1013.21 1013.06 1012.88 1012.99 1012.85 1013.14 1012.98 1012.71 1011.85 1011.25 1010.33 1010.04 1009.76 1009.40 1008.56 1007.72 1006.79 1004.68 1003.06 1002.87 1002.97 1002.17 1001.59 1001.67 1002.09 1002.48 1002.83 1003.90
1016.95 1017.33 1017.72 1017.70 1017.71 1017.49 1017.64 1017.24 1016.64 1016.15 1016.08 1015.67 1015.68 1015.30 1014.44 1013.69 1012.94 1013.01 1013.05 1013.01 1013.14 1013.40 1013.33 1012.93 1012.33 1011.33 1010.56 1010.31 1010.01 1009.43 1008.87 1008.54 1008.52 1008.29 1007.38 1006.96 1005.04 1003.33 1002.14 1001.57 1002.28 1002.50 1003.48 1004.45
1017.11 1017.40 1017.71 1017.50 1017.49 1017.42 1017.57 1017.41 1017.01 1016.00 1016.09 1015.99 1015.69 1015.48 1014.84 1013.85 1013.14 1013.15 1013.33 1013.25 1013.54 1013.92 1013.70 1013.30 1012.84 1011.97 1010.44 1010.44 1009.76 1009.60 1009.31 1009.18 1008.74 1007.99 1007.08 1006.68 1006.05 1004.39 1003.68 1002.84 1002.73 1002.97 1004.22 1005.32
1017.01 1017.27 1017.50 1017.37 1017.40 1017.31 1017.55 1017.45 1017.24 1016.34 1016.28 1015.64 1015.58 1015.25 1014.57 1013.91 1013.67 1014.01 1013.92 1013.89 1013.96 1013.98 1014.02 1013.82 1013.40 1012.76 1011.72 1010.91 1010.11 1010.19 1009.73 1009.53 1008.98 1007.93 1006.37 1005.84 1005.70 1005.17 1004.51 1004.22 1004.29 1004.84 1005.46 1006.99
1017.00 1017.27 1017.34 1017.36 1017.55 1017.49 1017.49 1017.07 1016.69 1016.82 1016.64 1015.84 1015.32 1015.09 1014.57 1014.22 1014.08 1014.16 1014.04 1014.12 1014.11 1013.90 1013.74 1013.41 1012.82 1012.10 1011.26 1010.78 1010.65 1010.77 1010.45 1009.88 1009.49 1008.20 1006.58 1006.57 1006.85 1006.56 1006.18 1007.28 1007.01 1005.86 1006.92 1008.49
1016.95 1017.23 1017.31 1017.57 1017.72 1017.56 1017.84 1017.61 1017.26 1017.60 1017.70 1016.15 1015.18 1014.79 1014.63 1014.43 1014.42 1014.43 1014.13 1013.84 1013.85 1013.71 1013.07 1012.40 1011.32 1010.42 1009.90 1009.67 1009.48 1010.10 1010.50 1010.27 1009.95 1009.17 1007.97 1007.75 1008.83 1008.20 1007.58 1007.92 1008.84 1009.13 1009.14 1009.97
1016.90 1017.13 1017.47 1017.60 1017.70 1017.69 1017.92 1017.82 1018.24 1018.03 1017.82 1016.81 1015.61 1015.24 1015.19 1014.89 1014.85 1014.76 1014.28 1014.28 1014.03 1013.54 1013.24 1012.78 1011.89 1010.79 1010.05 1009.60 1009.77 1009.83 1009.97 1010.44 1010.55 1010.43 1009.82 1009.29 1009.47 1009.71 1009.88 1009.64 1011.49 1011.89 1011.67 1011.93
1016.63 1017.24 1017.63 1017.69 1017.68 1017.75 1018.16 1018.30 1018.35 1018.32 1018.13 1017.21 1016.49 1016.13 1016.02 1015.88 1015.80 1015.43 1015.02 1014.67 1013.90 1013.78 1013.85 1013.95 1013.70 1012.71 1011.78 1010.84 1010.34 1010.11 1009.94 1010.25 1011.30 1011.38 1011.45 1011.82 1012.88 1011.94 1011.16 1011.02 1012.90 1013.63 1013.56 1013.61
1016.69 1017.28 1017.56 1017.67 1017.81 1017.96 1018.34 1018.62 1018.35 1018.67 1018.90 1017.63 1017.40 1017.05 1017.00 1016.57 1016.60 1016.38 1015.84 1015.65 1015.02 1014.56 1015.16 1015.10 1014.56 1013.72 1012.73 1012.36 1012.02 1011.61 1011.38 1011.50 1012.28 1012.44 1012.68 1013.62 1014.31 1013.01 1011.05 1012.34 1015.37 1014.83 1014.60 1014.67
1016.77 1017.08 1017.47 1017.92 1017.99 1018.26 1018.38 1018.46 1018.40 1019.06 1019.22 1018.36 1017.79 1017.51 1017.44 1017.01 1016.97 1017.14 1016.67 1016.21 1016.14 1015.92 1016.09 1016.20 1015.81 1015.12 1014.08 1013.59 1013.70 1013.29 1013.06 1013.07 1013.74 1013.83 1014.36 1015.35 1015.17 1013.96 1014.76 1016.04 1015.74 1015.53 1015.28 1015.29
1016.76 1017.23 1017.59 1017.87 1018.24 1018.28 1018.27 1018.65 1018.79 1019.01 1019.62 1019.02 1018.41 1017.76 1017.12 1017.12 1016.80 1017.09 1016.80 1016.92 1016.79 1016.60 1017.17 1017.18 1016.89 1016.12 1015.21 1014.71 1014.17 1013.83 1013.81 1014.18 1014.88 1015.88 1016.66 1017.19 1017.33 1017.53 1017.60 1017.20 1016.85 1016.52 1015.92 1015.64
1016.84 1017.21 1017.57 1017.96 1018.20 1018.33 1018.49 1018.86 1019.29 1019.60 1019.69 1018.80 1017.83 1016.45 1015.37 1015.42 1015.86 1016.15 1016.95 1016.66 1016.42 1016.95 1017.33 1017.73 1017.43 1016.87 1015.89 1015.76 1015.20 1014.86 1014.77 1014.78 1015.76 1016.79 1017.51 1017.84 1018.25 1018.64 1018.57 1018.41 1018.05 1017.57 1017.24 1016.86
1016.75 1017.24 1017.57 1017.92 1018.17 1018.39 1018.66 1019.01 1019.28 1019.59 1019.77 1019.16 1016.88 1015.18 1015.02 1014.61 1014.93 1015.63 1015.92 1016.29 1016.45 1016.97 1017.34 1017.84 1017.72 1017.28 1016.05 1016.02 1015.80 1015.96 1016.59 1016.46 1017.30 1017.95 1018.59 1019.04 1019.31 1019.63 1019.65 1019.37 1019.07 1018.52 1018.17 1018.09
1016.72 1017.20 1017.61 1017.99 1018.23 1018.47 1018.76 1018.88 1018.97 1019.19 1019.58 1019.12 1017.80 1016.34 1014.64 1014.17 1014.69 1015.12 1015.58 1016.07 1016.72 1017.30 1017.83 1018.06 1017.82 1016.82 1016.46 1016.15 1016.14 1017.05 1017.61 1018.22 1018.49 1018.96 1019.55 1019.71 1020.26 1020.52 1020.39 1020.14 1019.96 1019.59 1019.20 1018.96
1016.79 1017.22 1017.60 1017.98 1018.30 1018.57 1018.86 1019.03 1018.73 1018.87 1019.18 1019.29 1018.40 1015.96 1014.66 1014.55 1014.78 1015.22 1015.54 1016.21 1016.96 1017.59 1018.04 1018.06 1017.48 1016.45 1016.64 1016.89 1017.25 1018.19 1018.47 1018.99 1019.30 1019.64 1019.96 1020.21 1020.70 1020.86 1020.81 1020.74 1020.75 1020.38 1020.26 1020.30
1016.91 1017.32 1017.70 1018.02 1018.30 1018.71 1018.73 1018.94 1019.01 1018.88 1019.03 1019.33 1018.64 1016.74 1014.86 1014.70 1015.17 1015.72 1016.31 1016.58 1017.27 1017.71 1017.86 1017.81 1017.39 1016.79 1016.68 1017.05 1017.57 1018.56 1019.03 1019.52 1019.86 1020.19 1020.31 1020.73 1020.92 1021.24 1021.31 1021.12 1020.85 1021.01 1021.11 1021.35
1016.96 1017.41 1017.79 1018.10 1018.40 1018.68 1018.63 1018.15 1018.56 1018.64 1018.91 1019.22 1018.61 1016.94 1015.77 1015.26 1016.04 1016.64 1016.83 1017.23 1017.48 1017.68 1017.67 1017.21 1016.98 1016.63 1016.75 1017.56 1018.29 1018.78 1019.36 1019.79 1020.24 1020.66 1020.83 1021.18 1021.57 1021.76 1021.90 1021.83 1021.42 1021.65 1022.08 1022.48
1017.04 1017.54 1017.96 1018.46 1018.67 1018.55 1017.88 1017.56 1018.12 1018.72 1019.41 1018.85 1018.30 1017.07 1016.22 1015.56 1016.32 1016.98 1017.29 1017.36 1017.72 1017.33 1017.38 1016.86 1016.90 1017.08 1018.30 1018.92 1019.08 1019.60 1020.08 1020.50 1020.64 1020.97 1021.33 1021.71 1022.01 1022.39 1022.56 1022.69 1022.75 1022.92 1023.43 1023.79
1017.22 1017.86 1018.23 1018.44 1017.93 1017.38 1017.59 1018.39 1018.62 1018.72 1018.81 1018.81 1017.90 1016.67 1016.20 1015.84 1016.37 1017.06 1017.51 1017.63 1017.36 1017.03 1016.44 1016.17 1016.82 1018.89 1020.19 1020.50 1020.63 1020.92 1021.29 1021.59 1021.64 1021.81 1022.55 1022.66 1022.95 1023.18 1023.42 1023.80 1024.16 1024.56 1024.90 1025.13
1017.39 1017.71 1017.81 1017.40 1017.20 1017.69 1017.97 1018.34 1018.49 1018.29 1018.12 1017.64 1016.60 1016.00 1015.95 1015.34 1015.96 1016.67 1017.13 1017.20 1017.13 1016.65 1015.82 1016.39 1017.47 1019.49 1020.82 1021.52 1021.92 1022.32 1022.63 1023.03 1023.47 1023.89 1024.21 1024.32 1024.30 1024.42 1024.77 1025.31 1025.69 1025.95 1026.16 1026.29
1016.84 1017.08 1017.26 1017.42 1017.63 1017.71 1017.94 1017.56 1017.37 1016.99 1016.22 1015.44 1015.11 1014.98 1015.14 1015.26 1015.40 1016.31 1017.01 1016.95 1016.75 1016.36 1015.88 1016.90 1018.82 1020.74 1021.62 1022.28 1022.89 1023.50 1023.89 1024.42 1024.99 1025.38 1025.72 1025.96 1026.01 1026.10 1026.35 1026.74 1027.13 1027.38 1027.44 1027.44
1017.09 1017.30 1017.36 1016.94 1016.84 1016.78 1016.51 1015.67 1015.44 1015.15 1014.29 1014.25 1014.35 1014.81 1015.04 1015.31 1015.55 1016.37 1016.77 1016.72 1016.61 1016.27 1016.70 1018.47 1020.27 1021.50 1022.37 1023.09 1023.91 1024.71 1025.28 1025.76 1026.26 1026.72 1027.05 1027.30 1027.55 1027.69 1027.82 1028.20 1028.50 1028.60 1028.69 1028.52
1017.34 1017.38 1017.12 1016.48 1015.34 1014.77 1014.24 1013.86 1013.65 1013.24 1013.42 1013.98 1014.37 1014.91 1015.17 1015.50 1016.10 1016.26 1016.77 1016.65 1016.84 1017.41 1018.20 1019.90 1021.35 1022.42 1023.35 1024.14 1024.95 1025.66 1026.46 1026.94 1027.41 1027.85 1028.11 1028.34 1028.57 1028.74 1028.79 1028.89 1029.01 1029.23 1029.57 1029.23
1017.14 1017.03 1016.23 1015.21 1014.21 1014.06 1013.92 1013.63 1013.26 1013.05 1013.13 1013.84 1014.44 1014.88 1015.28 1015.86 1016.35 1016.61 1016.82 1017.12 1017.79 1018.42 1019.76 1021.16 1022.47 1023.39 1024.22 1025.11 1025.87 1026.53 1027.22 1027.70 1028.11 1028.45 1028.76 1029.04 1029.25 1029.38 1029.56 1029.52 1029.59 1029.66 1029.78 1029.86
1017.00 1016.61 1016.02 1015.26 1014.39 1014.40 1014.25 1013.97 1013.73 1013.32 1013.51 1013.95 1014.35 1015.14 1015.52 1015.93 1016.16 1016.74 1017.17 1017.78 1018.64 1019.71 1020.98 1022.23 1023.34 1024.41 1025.24 1025.95 1026.51 1027.07 1027.61 1028.10 1028.54 1028.90 1029.14 1029.36 1029.57 1029.75 1029.87 1029.90 1030.00 1030.11 1030.22 1030.33
1016.47 1016.03 1015.87 1015.82 1015.33 1014.83 1014.81 1014.61 1014.48 1014.27 1014.27 1014.51 1014.40 1014.98 1015.24 1015.73 1016.33 1016.96 1017.59 1018.77 1019.77 1020.80 1022.05 1023.09 1024.11 1025.07 1025.95 1026.55 1027.04 1027.52 1027.98 1028.43 1028.84 1029.14 1029.33 1029.50 1029.36 1029.62 1029.83 1030.24 1030.23 1030.29 1030.42 1030.49
Thickness
5408 5410 5410 5414 5418 5427 5434 5439 5445 5459 5460 5441 5447 5435 5475 5469 5467 5471 5468 5466 5466 5463 5463 5470 5474 5472 5477 5481 5485 5476 5486 5478 5495 5519 5530 5544 5546 5545 5551 5532 5539 5555 5547 5534
5399 5402 5404 5407 5415 5424 5426 5435 5446 5455 5455 5437 5442 5473 5473 5471 5467 5465 5464 5463 5467 5460 5457 5457 5472 5475 5482 5478 5478 5473 5481 5485 5484 5516 5531 5532 5527 5544 5559 5556 5553 5552 5543 5541
5392 5395 5397 5406 5411 5417 5422 5429 5425 5444 5444 5451 5457 5455 5463 5462 5470 5466 5465 5466 5461 5457 5453 5459 5461 5471 5477 5475 5477 5484 5487 5489 5473 5464 5471 5475 5501 5529 5549 5560 5544 5551 5547 5544
5385 5389 5394 5403 5407 5412 5417 5419 5424 5445 5424 5435 5449 5450 5452 5456 5464 5465 5462 5463 5459 5449 5440 5449 5448 5457 5471 5470 5477 5477 5479 5475 5488 5494 5502 5478 5490 5523 5532 5540 5550 5552 5544 5538
5380 5386 5391 5398 5403 5409 5411 5403 5414 5431 5436 5450 5448 5444 5454 5457 5459 5451 5452 5452 5451 5447 5439 5447 5435 5444 5448 5454 5469 5464 5473 5471 5482 5493 5516 5512 5518 5522 5531 5535 5538 5538 5536 5525
5375 5379 5387 5393 5396 5402 5408 5417 5423 5421 5430 5437 5437 5443 5453 5454 5455 5453 5456 5449 5445 5443 5450 5446 5447 5450 5456 5458 5454 5450 5458 5469 5471 5492 5515 5515 5507 5500 5513 5500 5507 5533 5522 5511
5371 5375 5382 5386 5389 5397 5401 5406 5412 5404 5400 5427 5447 5453 5452 5452 5451 5443 5451 5454 5451 5453 5457 5458 5464 5470 5475 5476 5470 5459 5456 5466 5472 5475 5497 5504 5483 5497 5503 5486 5477 5483 5499 5494
5367 5373 5376 5381 5384 5390 5394 5400 5397 5402 5396 5419 5437 5444 5443 5443 5441 5442 5450 5448 5449 5451 5453 5446 5453 5458 5475 5483 5469 5464 5470 5467 5452 5463 5474 5500 5485 5476 5475 5485 5463 5455 5470 5472
5365 5367 5369 5374 5380 5385 5386 5389 5392 5395 5390 5410 5427 5424 5425 5420 5419 5423 5441 5440 5446 5448 5443 5421 5441 5443 5456 5463 5470 5474 5476 5470 5455 5452 5472 5467 5445 5453 5470 5476 5449 5444 5446 5446
5358 5360 5364 5369 5373 5376 5378 5380 5387 5386 5385 5405 5407 5407 5405 5418 5413 5411 5425 5425 5429 5439 5412 5419 5427 5442 5465 5448 5449 5443 5447 5448 5444 5445 5457 5449 5428 5446 5472 5468 5437 5434 5436 5435
5351 5356 5359 5360 5365 5366 5372 5375 5379 5376 5378 5389 5401 5405 5403 5407 5408 5400 5409 5407 5409 5409 5407 5420 5419 5423 5436 5441 5437 5439 5436 5429 5413 5436 5441 5435 5419 5442 5436 5422 5424 5427 5428 5430
5344 5347 5351 5354 5355 5361 5366 5368 5370 5373 5371 5380 5387 5393 5401 5402 5404 5401 5404 5405 5409 5411 5394 5396 5404 5405 5416 5425 5437 5443 5437 5434 5425 5417 5413 5403 5401 5402 5400 5406 5411 5417 5426 5428
5338 5342 5345 5347 5351 5355 5359 5360 5362 5363 5364 5374 5383 5397 5412 5412 5409 5407 5396 5401 5410 5404 5402 5395 5399 5403 5397 5409 5414 5430 5433 5431 5414 5413 5403 5398 5394 5390 5391 5392 5396 5403 5407 5410
5333 5335 5339 5342 5345 5348 5351 5353 5356 5357 5359 5365 5388 5408 5411 5415 5412 5407 5406 5403 5403 5400 5395 5390 5386 5395 5416 5406 5416 5416 5405 5406 5388 5396 5388 5384 5381 5379 5379 5382 5384 5391 5394 5394
5327 5330 5332 5335 5339 5342 5345 5349 5352 5355 5357 5364 5369 5389 5408 5413 5411 5409 5404 5400 5397 5392 5374 5380 5374 5396 5395 5403 5408 5397 5391 5384 5390 5387 5373 5376 5369 5367 5368 5370 5372 5376 5381 5385
5321 5324 5327 5330 5333 5336 5339 5343 5350 5353 5355 5356 5360 5389 5407 5408 5406 5404 5404 5394 5388 5381 5378 5364 5377 5398 5386 5389 5381 5380 5380 5376 5374 5373 5368 5366 5360 5360 5362 5362 5362 5365 5367 5367
5315 5318 5321 5325 5329 5332 5335 5342 5345 5347 5350 5351 5357 5372 5401 5402 5399 5391 5386 5387 5380 5376 5376 5373 5378 5383 5387 5378 5376 5374 5371 5369 5367 5364 5365 5360 5356 5354 5353 5356 5360 5359 5358 5355
5309 5312 5316 5320 5324 5327 5330 5339 5340 5344 5347 5348 5356 5365 5383 5395 5382 5376 5378 5378 5378 5371 5369 5376 5378 5384 5385 5374 5375 5374 5369 5365 5362 5358 5357 5352 5349 5347 5345 5346 5351 5349 5345 5340
5302 5306 5310 5313 5316 5319 5328 5338 5339 5339 5340 5350 5355 5363 5355 5389 5378 5372 5372 5373 5366 5371 5367 5374 5376 5363 5361 5364 5366 5362 5359 5356 5360 5358 5355 5350 5345 5340 5337 5336 5336 5334 5328 5324
5295 5298 5300 5301 5312 5323 5328 5326 5329 5333 5339 5344 5356 5369 5362 5378 5367 5367 5365 5367 5372 5364 5372 5383 5367 5347 5341 5342 5345 5345 5342 5341 5344 5347 5340 5341 5337 5334 5330 5326 5322 5317 5313 5311
5289 5291 5296 5306 5313 5314 5319 5321 5327 5335 5344 5346 5360 5369 5364 5381 5366 5357 5364 5372 5371 5373 5383 5385 5380 5357 5338 5332 5331 5329 5326 5322 5320 5317 5315 5315 5318 5319 5315 5308 5305 5302 5299 5297
5285 5291 5297 5300 5305 5311 5316 5329 5332 5343 5354 5359 5364 5368 5374 5377 5375 5370 5366 5370 5373 5377 5386 5380 5358 5337 5330 5326 5323 5317 5313 5309 5304 5301 5298 5296 5297 5296 5294 5291 5287 5285 5284 5283
5280 5285 5291 5300 5308 5313 5323 5335 5345 5342 5363 5372 5368 5357 5368 5370 5373 5354 5366 5374 5373 5369 5375 5363 5341 5331 5327 5320 5312 5306 5302 5298 5293 5288 5283 5279 5274 5272 5272 5267 5264 5264 5263 5265
5274 5282 5284 5304 5327 5336 5339 5351 5360 5369 5372 5371 5366 5359 5361 5359 5361 5368 5369 5364 5372 5375 5366 5349 5331 5322 5316 5310 5303 5296 5288 5283 5278 5272 5267 5263 5261 5257 5254 5252 5250 5248 5247 5245
5277 5288 5294 5322 5338 5340 5346 5354 5361 5366 5369 5369 5360 5361 5365 5359 5359 5366 5363 5367 5357 5363 5343 5324 5317 5312 5307 5299 5293 5285 5278 5270 5265 5260 5256 5251 5249 5247 5243 5241 5238 5236 5233 5232
5278 5290 5302 5318 5335 5336 5344 5351 5359 5362 5358 5357 5358 5355 5367 5350 5370 5364 5351 5365 5360 5347 5326 5317 5309 5300 5294 5288 5283 5277 5270 5264 5257 5251 5249 5244 5237 5232 5228 5225 5223 5218 5216 5211
5289 5300 5304 5310 5323 5335 5337 5343 5348 5350 5353 5357 5368 5358 5374 5359 5353 5365 5354 5346 5319 5323 5317 5309 5301 5292 5283 5277 5273 5268 5265 5258 5253 5246 5241 5234 5230 5225 5222 5214 5207 5205 5201 5196